COSMOS 252 DEB, 3785

Orbit data source: Space-Track

COSMOS 252 DEB, 3785 is space debris in LEO originally from a launch on Fri, 01 Nov 1968 UTC launched from the Tyuratam Missile And Space Complex (TTMTR). Debris objects in space refer to the collection of defunct objects orbiting the Earth. Examples of debris include non-operational satellites, rocket bodies, and fragments generated from explosions, collisions, or faulty payload assembly.

Loading next visibility...
Identifier
3785, 1968-097AX
Orbit
LEO
Country
Flag of CISCIS
Related business
Manufacturer
Unknown
Mission
Spacecraft
Bus & Motor
Unknown
Mass
Unknown
Launch date (UTC)
1968-11-01 (57 years ago)
Launch vehicle
Unknown
Launch site
Tyuratam Missile And Space Complex (TTMTR)
Object type
Payload
Rocket body
Debris
Shape & HBR
Unknown shape, 0.1 m
Radar Cross Section
Small (<0.1 m²)

Expand to show TLE details & history
Last TLE update: 1 day ago

TLE from 1 day ago
0 COSMOS 252 DEB
1 03785U 68097AX  26035.58706339  .00001017  00000-0  13114-2 0  9991
2 03785  62.2515 252.7578 0785838  43.4331 322.5892 12.78940644539383
Epoch: 2026-02-04T14:05Z
TLE epoch observation values (Epoch: 2026-02-04T14:05:22.276Z)
Latitude
-0.00005°
Longitude
-93.33655°
Altitude
884.549 km
Speed
7.629 km/s
True Right ascension
16h 51m 01s
True Declination
0° 00' 00"
Sunlit
Object was in daylight at epoch
Visualization orbit readout
Latitude
Unknown
Longitude
Unknown
Altitude
Unknown
Speed
Unknown
Apparent Right ascension
Unknown
Apparent Declination
Unknown
Sunlit
N/A
Visualization observer readout
Local Sidereal Time
22:08:33
Azimuth
Unknown
Elevation
Unknown
Doppler factor
Unknown
Orbital elements
Apogee altitude
1,951.623 km
Perigee altitude
737.839 km
Semi-major axis
7,722.868 km
Eccentricity
0.07858
Inclination
62.2515°
RAAN
252.7578°
Arg. of periapsis
43.4331°
True anomaly
316.66782°
Mean anomaly
322.5892°
Eccentric anomaly
319.67555°
Mean motion
3.19798 °/min
Orbital period
112.57 mins
BSTAR
0.0013114
Loading maneuver chart data...
Computing Atmospheric mass density...
Loading historical data...
Loading historical data...
Loading historical data...
Loading historical data...
Loading historical data...
Loading historical data...
Loading historical data...

Documentation

Showing up to 5 results
|